Retour au catalogue

COSMOS 1275 DEB

ActifPO
NORAD 12690·DEBRIS·🇷🇺 Russia

Lancé Jun 4, 1981 depuis Plesetsk Cosmodrome

Loading…

Prochains Passages (prochaines 24 heures)

TLE

FraisSource: Space-Track

Époque: Sep 14, 2026, 12:07 UTC

1 12690U 81053AJ  26257.50490781  .00000825  00000-0  67610-3 0  9999
2 12690  82.9482 267.1102 0089280 216.0709 298.0046 13.86583228256507

Suivez COSMOS 1275 DEB en temps réel avec AllMySat

Download on the App Store